Home   Weather   Erding   Past weeks

Flag for Germany Past Weather in Erding, Bavaria, Germany — Yesterday and Last 2 Weeks

Now
27 °F

Light snow. Partly sunny.


Feels Like: 20 °F
Forecast: 16 / 22 °F
Wind: 6 mph from North

Location: Munich / Franz Josef Strauss Airport

Current Time: Jan 16, 2017 at 4:05:25 pm

Latest Report: Jan 16, 2017 at 3:50 pm


Visibility: 5 mi

Pressure: 30.15 "Hg

Humidity: 86%

Dew Point: 23 °F

Location of ErdingLocation

Past Weather in Erding — Graph

°F

Erding Temperature Yesterday

Maximum temperature yesterday: 30 °F (at 11:20 am)
Minimum temperature yesterday: 25 °F (at 5:50 pm)
Average temperature yesterday: 28 °F

High & Low Weather Summary for the Past Weeks

 TemperatureHumidityPressure
High39 °F (Jan 12, 12:50 pm)100% (Jan 1, 2:20 pm)30.66 "Hg (Jan 1, 2:20 pm)
Low-6 °F (Jan 6, 11:50 pm)53% (Jan 6, 3:50 pm)29.39 "Hg (Jan 13, 1:50 am)
Average26 °F88%30.09 "Hg
* Reported Jan 1 2:20 pm — Jan 16 2:50 pm, Erding, Weather by CustomWeather, © 2017

Note: Actual official high and low records may vary slightly from our data, if they occured in-between our weather recording intervals... More about our weather records

Advertising

Erding Weather History for the Previous 24 Hours

Scroll right to see more
 ConditionsComfort  
Time TempWeatherWind HumidityBarometerVisibility
2:50 pm
Mon, Jan 16
27 °FLight snow. Broken clouds.6 mph80%30.12 "HgN/A
2:20 pm27 °FLight snow. Partly sunny.5 mph86%30.12 "HgN/A
1:20 pm28 °FLight snow. Broken clouds.6 mph80%30.12 "Hg4 mi
12:50 pm27 °FSnow. Mostly cloudy.5 mph86%30.12 "Hg2 mi
12:20 pm27 °FLight snow. Broken clouds.3 mph86%30.12 "Hg3 mi
11:50 am27 °FLight snow. Broken clouds.3 mph86%30.15 "HgN/A
11:20 am27 °FLight snow. Broken clouds.3 mph86%30.15 "HgN/A
10:20 am27 °FLight snow. Partly sunny.2 mph86%30.12 "Hg3 mi
9:50 am27 °FSnow. Mostly cloudy.1 mph93%30.12 "Hg1 mi
9:20 am25 °FLight snow. Broken clouds.3 mph93%30.12 "Hg1 mi
8:50 am23 °FLight snow. Partly sunny.1 mph93%30.12 "Hg2 mi
8:20 am23 °FLight snow. Partly sunny.2 mph93%30.12 "HgN/A
7:50 am25 °FPassing clouds.2 mph93%30.12 "HgN/A
7:20 am25 °FPassing clouds.3 mph93%30.09 "Hg5 mi
6:50 am23 °FPassing clouds.3 mph93%30.09 "Hg5 mi
6:20 am25 °FPartly cloudy.6 mph93%30.09 "Hg5 mi
5:50 am25 °FPassing clouds.5 mph93%30.09 "Hg5 mi
5:20 am25 °FPassing clouds.5 mph93%30.09 "Hg5 mi
4:50 am25 °FLight mixture of precip. Passing clouds.6 mph93%30.09 "Hg4 mi
4:20 am25 °FLight mixture of precip. Passing clouds.5 mph93%30.09 "Hg4 mi
3:50 am25 °FSnow flurries. Passing clouds.7 mph93%30.09 "Hg4 mi
3:20 am25 °FPassing clouds.6 mph93%30.09 "Hg4 mi
2:50 am25 °FPassing clouds.5 mph93%30.09 "Hg4 mi
2:20 am25 °FPassing clouds.8 mph93%30.09 "Hg4 mi
1:50 am25 °FSnow flurries. Ice fog.9 mph93%30.09 "Hg3 mi
1:20 am25 °FLight mixture of precip. Passing clouds.10 mph93%30.09 "Hg5 mi
12:50 am25 °FSnow flurries. Passing clouds.9 mph93%30.09 "Hg5 mi
12:20 am27 °FSnow flurries. Partly cloudy.10 mph93%30.09 "Hg2 mi
11:50 pm
Sun, Jan 15
27 °FSnow showers. Partly cloudy.10 mph93%30.09 "Hg2 mi
11:20 pm27 °FSnow flurries. Partly cloudy.12 mph93%30.09 "Hg3 mi
10:50 pm27 °FSnow flurries. Partly cloudy.7 mph93%30.09 "Hg4 mi
10:20 pm27 °FSnow flurries. Partly cloudy.6 mph93%30.09 "Hg4 mi
9:50 pm27 °FSnow flurries. Passing clouds.9 mph86%30.09 "HgN/A
9:20 pm27 °FSnow flurries. Partly cloudy.7 mph93%30.09 "HgN/A
8:50 pm25 °FSnow flurries. Partly cloudy.8 mph93%30.09 "HgN/A
8:20 pm25 °FPartly cloudy.9 mph93%30.09 "HgN/A
7:50 pm27 °FPartly cloudy.9 mph86%30.12 "HgN/A
7:20 pm27 °FPartly cloudy.8 mph86%30.12 "HgN/A
6:50 pm27 °FPartly cloudy.9 mph86%30.09 "HgN/A
6:20 pm27 °FPassing clouds.9 mph93%30.09 "HgN/A
5:50 pm25 °FPassing clouds.12 mph93%30.09 "HgN/A
5:20 pm27 °FPassing clouds.9 mph93%30.09 "HgN/A
4:50 pm27 °FSnow flurries. Passing clouds.6 mph93%30.09 "HgN/A
4:20 pm28 °FHeavy snow. Partly sunny.9 mph93%30.09 "Hg1 mi
Weather by CustomWeather, © 2017

See weather overviewHow to use our weather pages